EA6DT Weather Reports


time (UTC)temp
C
wind
direction
speed
KPH
gust
KPH
rain 1hr
cm
rain 24hr
cm
rain mn
cm
humidity
%
barometer
mb
20260506203857 16 59 0.0 0.0 0.00 0.00 0.00 85 1013.9
20260506203343 16 85 0.0 0.0 0.00 0.00 0.00 85 1013.8
20260506202829 16 68 0.0 0.0 0.00 0.00 0.00 84 1013.8
20260506202340 16 52 1.6 0.0 0.00 0.00 0.00 84 1013.8
20260506201830 16 44 1.6 0.0 0.00 0.00 0.00 84 1013.7
20260506201338 16 37 0.0 0.0 0.00 0.00 0.00 83 1013.6
20260506200848 16 47 0.0 0.0 0.00 0.00 0.00 82 1013.6
20260506200357 16 83 0.0 0.0 0.00 0.00 0.00 82 1013.5
20260506195842 16 92 0.0 0.0 0.00 0.00 0.00 82 1013.5
20260506195331 16 75 0.0 0.0 0.00 0.00 0.00 82 1013.4
20260506194858 16 76 0.0 0.0 0.00 0.00 0.00 82 1013.4
20260506194327 16 88 1.6 0.0 0.00 0.00 0.00 82 1013.4
20260506193836 16 97 1.6 0.0 0.00 0.00 0.00 81 1013.3
20260506193326 16 108 1.6 0.0 0.00 0.00 0.00 81 1013.2
20260506192833 17 83 3.2 0.0 0.00 0.00 0.00 81 1013.1
20260506192345 17 97 1.6 0.0 0.00 0.00 0.00 81 1013.0
20260506191835 17 102 1.6 0.0 0.00 0.00 0.00 81 1013.0
20260506191345 17 90 1.6 0.0 0.00 0.00 0.00 81 1012.9
20260506190855 17 90 1.6 0.0 0.00 0.00 0.00 80 1012.8
20260506190341 17 95 3.2 0.0 0.00 0.00 0.00 79 1012.7
20260506185827 17 93 3.2 0.0 0.00 0.00 0.00 79 1012.7
20260506185337 17 103 1.6 0.0 0.00 0.00 0.00 79 1012.6
20260506184827 17 66 0.0 0.0 0.00 0.00 0.00 79 1012.6
20260506184357 17 95 0.0 0.0 0.00 0.00 0.00 78 1012.5
20260506183842 17 68 1.6 0.0 0.00 0.00 0.00 78 1012.4
20260506183332 17 62 1.6 0.0 0.00 0.00 0.00 78 1012.4
20260506182843 17 49 1.6 0.0 0.00 0.00 0.00 78 1012.3
20260506182355 17 67 1.6 0.0 0.00 0.00 0.00 78 1012.3
20260506181841 18 67 3.2 0.0 0.00 0.00 0.00 78 1012.3
20260506181331 17 97 3.2 0.0 0.00 0.00 0.00 78 1012.3
20260506180841 17 89 6.4 0.0 0.00 0.00 0.00 78 1012.3
20260506180332 17 62 6.4 0.0 0.00 0.00 0.00 79 1012.3
20260506175835 18 116 4.8 0.0 0.00 0.00 0.00 79 1012.3
20260506175327 18 107 4.8 0.0 0.00 0.00 0.00 80 1012.3
20260506174833 18 93 4.8 0.0 0.00 0.00 0.00 81 1012.3
20260506174343 17 54 3.2 0.0 0.00 0.00 0.00 80 1012.3
20260506173834 17 34 3.2 0.0 0.00 0.00 0.00 81 1012.3
20260506173326 17 103 4.8 0.0 0.00 0.00 0.00 81 1012.3
20260506172836 17 43 8.0 0.0 0.00 0.00 0.00 81 1012.2
20260506172342 17 143 6.4 0.0 0.00 0.00 0.00 82 1012.1
20260506171833 17 105 6.4 0.0 0.00 0.00 0.00 82 1012.2
20260506171344 17 85 6.4 0.0 0.00 0.00 0.00 83 1012.1
20260506170854 17 65 4.8 0.0 0.00 0.00 0.00 83 1012.2
20260506170339 17 59 3.2 0.0 0.00 0.00 0.00 83 1012.3
20260506165842 17 68 4.8 0.0 0.00 0.00 0.00 83 1012.3
20260506165334 17 86 4.8 0.0 0.00 0.00 0.00 83 1012.2
20260506164845 17 350 3.2 0.0 0.00 0.00 0.00 82 1012.3
20260506164336 17 30 4.8 0.0 0.00 0.00 0.00 81 1012.3
20260506163827 17 13 3.2 0.0 0.00 0.00 0.00 80 1012.1
20260506163335 17 53 3.2 0.0 0.00 0.00 0.00 79 1012.1
20260506162845 17 108 4.8 0.0 0.00 0.00 0.00 78 1011.9
20260506162335 17 76 3.2 0.0 0.00 0.00 0.00 78 1012.0
20260506161845 17 46 3.2 0.0 0.00 0.00 0.00 77 1012.2
20260506161336 17 121 3.2 0.0 0.00 0.00 0.00 77 1012.1
20260506160842 17 57 3.2 0.0 0.00 0.00 0.00 76 1012.1
20260506160332 17 61 1.6 0.0 0.00 0.00 0.00 77 1012.2
20260506155835 17 19 1.6 0.0 0.00 0.00 0.00 74 1012.2
20260506155327 17 89 3.2 0.0 0.00 0.00 0.00 75 1012.2
20260506154837 18 67 3.2 0.0 0.00 0.00 0.00 77 1012.3
20260506154403 18 56 3.2 0.0 0.00 0.00 0.00 77 1012.2
20260506153834 18 102 4.8 0.0 0.00 0.00 0.00 77 1012.0
20260506153345 18 69 4.8 0.0 0.00 0.00 0.00 78 1012.1
20260506152836 18 56 4.8 0.0 0.00 0.00 0.00 78 1012.1
20260506152402 18 52 6.4 0.0 0.00 0.00 0.00 77 1012.1
20260506151851 18 57 8.0 0.0 0.00 0.00 0.00 76 1012.1
20260506151401 18 48 8.0 0.0 0.00 0.00 0.00 77 1012.1
20260506150830 18 103 8.0 0.0 0.00 0.00 0.00 76 1012.1
20260506150336 18 70 8.0 0.0 0.00 0.00 0.00 76 1012.1
20260506145840 18 103 6.4 0.0 0.00 0.00 0.00 76 1012.2
20260506145330 18 41 6.4 0.0 0.00 0.00 0.00 75 1012.3
20260506144900 18 57 6.4 0.0 0.00 0.00 0.00 76 1012.3
20260506144329 18 79 6.4 0.0 0.00 0.00 0.00 76 1012.4
20260506143835 18 101 4.8 0.0 0.00 0.00 0.00 75 1012.4
20260506143327 18 108 4.8 0.0 0.00 0.00 0.00 75 1012.5
20260506142857 18 95 4.8 0.0 0.00 0.00 0.00 74 1012.4
20260506142327 18 96 6.4 0.0 0.00 0.00 0.00 75 1012.4
20260506141837 18 65 6.4 0.0 0.00 0.00 0.00 77 1012.4
20260506141405 18 142 6.4 0.0 0.00 0.00 0.00 77 1012.4
20260506140834 18 103 8.0 0.0 0.00 0.00 0.00 78 1012.5
20260506140403 18 77 8.0 0.0 0.00 0.00 0.00 79 1012.5
20260506135827 18 120 6.4 0.0 0.00 0.00 0.00 80 1012.6
20260506135334 18 130 6.4 0.0 0.00 0.00 0.00 81 1012.6
20260506134345 18 77 8.0 0.0 0.00 0.00 0.00 83 1012.6
20260506133830 17 102 8.0 0.0 0.00 0.00 0.00 82 1012.7
20260506133337 17 113 6.4 0.0 0.00 0.00 0.00 83 1012.8
20260506132827 17 107 6.4 0.0 0.00 0.00 0.00 84 1012.9
20260506132337 18 113 4.8 0.0 0.00 0.00 0.00 84 1012.9
20260506131848 18 148 4.8 0.0 0.00 0.00 0.00 83 1012.9
20260506131337 18 130 4.8 0.0 0.00 0.00 0.00 82 1012.7
20260506130903 18 190 6.4 0.0 0.00 0.00 0.00 81 1012.7
20260506130332 18 182 6.4 0.0 0.00 0.00 0.00 81 1012.8
20260506125836 18 132 6.4 0.0 0.00 0.00 0.00 79 1012.7
20260506125406 18 128 8.0 0.0 0.00 0.00 0.00 79 1012.7
20260506124832 18 117 8.0 0.0 0.00 0.00 0.00 78 1012.6
20260506124343 19 195 6.4 0.0 0.00 0.00 0.00 77 1012.7
20260506123852 19 153 8.0 0.0 0.00 0.00 0.00 76 1012.7
20260506123422 18 131 9.7 0.0 0.00 0.00 0.00 75 1012.5
20260506122843 19 107 8.0 0.0 0.00 0.00 0.00 75 1012.6
20260506122333 19 131 8.0 0.0 0.00 0.00 0.00 76 1012.5
20260506121843 18 184 9.7 0.0 0.00 0.00 0.00 75 1012.3
20260506121334 18 143 11.3 0.0 0.00 0.00 0.00 75 1012.2
20260506120904 18 125 11.3 0.0 0.00 0.00 0.00 74 1012.3
20260506120329 19 191 8.0 0.0 0.00 0.00 0.00 69 1012.2
20260506115833 21 318 9.7 0.0 0.00 0.00 0.00 67 1012.4
20260506115344 21 99 11.3 0.0 0.00 0.00 0.00 68 1012.1
20260506114835 21 86 9.7 0.0 0.00 0.00 0.00 67 1012.0
20260506114402 21 66 11.3 0.0 0.00 0.00 0.00 66 1012.0
20260506113832 21 85 9.7 0.0 0.00 0.00 0.00 63 1011.9
20260506113343 22 96 4.8 0.0 0.00 0.00 0.00 60 1011.8
20260506112853 22 170 3.2 0.0 0.00 0.00 0.00 59 1011.8
20260506112343 22 154 3.2 0.0 0.00 0.00 0.00 58 1011.8
20260506111829 22 75 6.4 0.0 0.00 0.00 0.00 60 1011.9
20260506111400 22 115 6.4 0.0 0.00 0.00 0.00 59 1011.8
20260506110829 22 89 3.2 0.0 0.00 0.00 0.00 60 1011.9
20260506110333 22 107 3.2 0.0 0.00 0.00 0.00 62 1012.0
20260506105832 22 68 4.8 0.0 0.00 0.00 0.00 62 1012.0
20260506105343 22 127 4.8 0.0 0.00 0.00 0.00 63 1012.2
20260506104833 22 1 4.8 0.0 0.00 0.00 0.00 63 1012.3
20260506104343 22 136 3.2 0.0 0.00 0.00 0.00 63 1012.3
20260506103833 21 160 1.6 0.0 0.00 0.00 0.00 63 1012.4
20260506103340 21 105 4.8 0.0 0.00 0.00 0.00 60 1012.3
20260506102850 21 104 6.4 0.0 0.00 0.00 0.00 62 1012.4
20260506102339 21 86 4.8 0.0 0.00 0.00 0.00 61 1012.3
20260506101829 21 171 4.8 0.0 0.00 0.00 0.00 62 1012.3
20260506101340 21 92 4.8 0.0 0.00 0.00 0.00 61 1012.4
20260506100906 21 58 3.2 0.0 0.00 0.00 0.00 61 1012.5
20260506100335 21 238 1.6 0.0 0.00 0.00 0.00 61 1012.5
20260506095839 21 103 1.6 0.0 0.00 0.00 0.00 61 1012.5
20260506095330 21 91 3.2 0.0 0.00 0.00 0.00 62 1012.5
20260506094836 21 120 3.2 0.0 0.00 0.00 0.00 64 1012.4
20260506094348 21 82 3.2 0.0 0.00 0.00 0.00 66 1012.4
20260506093838 20 210 4.8 0.0 0.00 0.00 0.00 67 1012.4
20260506093329 20 79 4.8 0.0 0.00 0.00 0.00 67 1012.4
20260506092839 20 56 4.8 0.0 0.00 0.00 0.00 67 1012.5
20260506092327 20 174 4.8 0.0 0.00 0.00 0.00 68 1012.5
20260506091837 20 102 3.2 0.0 0.00 0.00 0.00 69 1012.5
20260506091328 20 352 3.2 0.0 0.00 0.00 0.00 68 1012.4
20260506090838 20 68 3.2 0.0 0.00 0.00 0.00 69 1012.5
20260506090350 20 27 3.2 0.0 0.00 0.00 0.00 70 1012.5
20260506085828 20 51 3.2 0.0 0.00 0.00 0.00 70 1012.5
20260506085338 20 79 3.2 0.0 0.00 0.00 0.00 71 1012.5
20260506084828 20 103 6.4 0.0 0.00 0.00 0.00 71 1012.5
20260506084340 20 81 4.8 0.0 0.00 0.00 0.00 71 1012.5
20260506083850 20 360 4.8 0.0 0.00 0.00 0.00 71 1012.5
20260506083337 20 56 1.6 0.0 0.00 0.00 0.00 71 1012.6
20260506082828 20 55 1.6 0.0 0.00 0.00 0.00 74 1012.6
20260506082339 19 155 1.6 0.0 0.00 0.00 0.00 73 1012.6
20260506081829 19 111 3.2 0.0 0.00 0.00 0.00 74 1012.6
20260506081340 18 132 4.8 0.0 0.00 0.00 0.00 77 1012.6
20260506080329 18 43 4.8 0.0 0.00 0.00 0.00 79 1012.6
20260506073427 17 46 1.6 0.0 0.00 0.00 0.00 88 1012.7
20260506072832 17 161 1.6 0.0 0.00 0.00 0.00 91 1012.6
20260506072339 17 165 1.6 0.0 0.00 0.00 0.00 93 1012.6
20260506071830 16 136 1.6 0.0 0.00 0.00 0.00 94 1012.6
20260506071339 16 97 1.6 0.0 0.00 0.00 0.00 94 1012.6
20260506070829 16 48 1.6 0.0 0.00 0.00 0.00 94 1012.6
20260506070340 16 52 1.6 0.0 0.00 0.00 0.00 95 1012.6
20260506062326 13 360 1.6 0.0 0.00 0.00 0.00 95 1012.8
20260506061834 13 356 3.2 0.0 0.00 0.00 0.00 95 1012.8
20260506061405 13 360 3.2 0.0 0.00 0.00 0.00 95 1012.8
20260506060852 13 360 3.2 0.0 0.00 0.00 0.00 95 1012.8
20260506060340 13 345 3.2 0.0 0.00 0.00 0.00 95 1012.7
20260506051328 13 360 0.0 0.0 0.00 0.00 0.00 95 1012.3
20260506050847 13 360 0.0 0.0 0.00 0.00 0.00 95 1012.3
20260506050337 13 360 0.0 0.0 0.00 0.00 0.00 95 1012.2
20260506044827 13 360 0.0 0.0 0.00 0.00 0.00 95 1012.2
20260506044338 13 360 0.0 0.0 0.00 0.00 0.00 95 1012.1
20260506043825 13 360 0.0 0.0 0.00 0.00 0.00 95 1012.0
20260506043335 13 360 0.0 0.0 0.00 0.00 0.00 95 1012.0
20260506042826 13 360 0.0 0.0 0.00 0.00 0.00 94 1011.9
20260506042337 13 360 0.0 0.0 0.00 0.00 0.00 95 1011.9
20260506041827 12 360 0.0 0.0 0.00 0.00 0.00 94 1011.8
20260506041334 12 360 0.0 0.0 0.00 0.00 0.00 94 1011.8
20260506040844 12 360 1.6 0.0 0.00 0.00 0.00 94 1011.8
20260506040334 12 360 1.6 0.0 0.00 0.00 0.00 94 1011.8
20260506035837 12 360 1.6 0.0 0.00 0.00 0.00 94 1011.7
20260506035348 12 360 1.6 0.0 0.00 0.00 0.00 94 1011.7
20260506034833 12 360 0.0 0.0 0.00 0.00 0.00 94 1011.7
20260506034343 12 360 0.0 0.0 0.00 0.00 0.00 94 1011.6
20260506033833 13 360 0.0 0.0 0.00 0.00 0.00 94 1011.5
20260506033325 13 360 0.0 0.0 0.00 0.00 0.00 94 1011.5
20260506032836 13 360 1.6 0.0 0.00 0.00 0.00 95 1011.4
20260506032342 13 360 1.6 0.0 0.00 0.00 0.00 94 1011.4
20260506031853 13 360 0.0 0.0 0.00 0.00 0.00 94 1011.4
20260506031344 13 360 1.6 0.0 0.00 0.00 0.00 94 1011.4
20260506030854 13 360 3.2 0.0 0.00 0.00 0.00 94 1011.5
20260506030400 13 360 3.2 0.0 0.00 0.00 0.00 94 1011.4
20260506025842 13 360 1.6 0.0 0.00 0.00 0.00 94 1011.3
20260506025354 13 360 0.0 0.0 0.00 0.00 0.00 94 1011.2
20260506024904 13 360 0.0 0.0 0.00 0.00 0.00 94 1011.1
20260506024330 13 360 1.6 0.0 0.00 0.00 0.00 94 1011.2
20260506023840 13 360 3.2 0.0 0.00 0.00 0.00 94 1011.2
20260506023331 13 360 3.2 0.0 0.00 0.00 0.00 93 1011.3
20260506022841 13 360 1.6 0.0 0.00 0.00 0.00 94 1011.2
20260506022331 13 360 0.0 0.0 0.00 0.00 0.00 94 1011.3
20260506021837 13 360 0.0 0.0 0.00 0.00 0.00 93 1011.2
20260506021328 13 360 0.0 0.0 0.00 0.00 0.00 93 1011.2
20260506020833 13 360 0.0 0.0 0.00 0.00 0.00 93 1011.2
20260506020343 14 360 1.6 0.0 0.00 0.00 0.00 94 1011.2
20260506015845 13 360 1.6 0.0 0.00 0.00 0.00 94 1011.3
20260506015335 13 360 1.6 0.0 0.00 0.00 0.00 93 1011.3
20260506014906 13 360 1.6 0.0 0.00 0.00 0.00 93 1011.4
20260506014357 14 360 3.2 0.0 0.00 0.00 0.00 93 1011.4
20260506013842 14 360 1.6 0.0 0.00 0.00 0.00 93 1011.5
20260506013332 14 360 0.0 0.0 0.00 0.00 0.00 93 1011.5
20260506012843 15 360 0.0 0.0 0.00 0.00 0.00 93 1011.4
20260506012334 15 360 0.0 0.0 0.00 0.00 0.00 93 1011.5
20260506011844 15 360 0.0 0.0 0.00 0.00 0.00 93 1011.5
20260506011334 15 360 0.0 0.0 0.00 0.00 0.00 93 1011.4
20260506010900 15 360 0.0 0.0 0.00 0.00 0.00 93 1011.5
20260506010330 15 360 0.0 0.0 0.00 0.00 0.00 93 1011.6
20260506005834 15 360 1.6 0.0 0.00 0.00 0.00 93 1011.6
20260506005404 15 360 0.0 0.0 0.00 0.00 0.00 93 1011.6
20260506004830 15 360 0.0 0.0 0.00 0.00 0.00 93 1011.7
20260506004400 15 360 0.0 0.0 0.00 0.00 0.00 93 1011.7
20260506003849 15 360 0.0 0.0 0.00 0.00 0.00 93 1011.8
20260506003350 15 360 0.0 0.0 0.00 0.00 0.00 93 1011.8
20260506002839 15 360 0.0 0.0 0.00 0.00 0.00 93 1011.9
20260506002331 15 360 0.0 0.0 0.00 0.00 0.00 92 1012.0
20260506001841 15 360 0.0 0.0 0.00 0.00 0.00 92 1012.0
20260506001331 15 360 0.0 0.0 0.00 0.00 0.00 92 1012.0
20260506000917 15 360 0.0 0.0 0.00 0.00 0.00 92 1012.1
20260506000343 15 360 0.0 0.0 0.00 0.00 0.00 92 1012.2
20260505235826 15 360 1.6 0.0 0.00 0.00 0.00 92 1012.2
20260505235336 15 360 1.6 0.0 0.00 0.00 0.00 92 1012.3
20260505234826 15 360 1.6 0.0 0.00 0.00 0.00 91 1012.2
20260505234333 15 360 1.6 0.0 0.00 0.00 0.00 91 1012.2
20260505233843 15 360 1.6 0.0 0.00 0.00 0.00 91 1012.3
20260505233333 15 360 0.0 0.0 0.00 0.00 0.00 91 1012.2
20260505232843 16 360 1.6 0.0 0.00 0.00 0.00 91 1012.2
20260505232334 16 360 1.6 0.0 0.00 0.00 0.00 91 1012.2
20260505231840 16 360 1.6 0.0 0.00 0.00 0.00 91 1012.2
20260505231330 16 360 1.6 0.0 0.00 0.00 0.00 91 1012.1
20260505230900 16 360 1.6 0.0 0.00 0.00 0.00 92 1012.0
20260505230331 16 360 1.6 0.0 0.00 0.00 0.00 92 1012.0
20260505225830 16 360 1.6 0.0 0.00 0.00 0.00 92 1012.0
20260505225400 16 360 1.6 0.0 0.00 0.00 0.00 92 1012.0
20260505224849 16 360 1.6 0.0 0.00 0.00 0.00 92 1012.1
20260505224339 16 360 1.6 0.0 0.00 0.00 0.00 92 1012.1
20260505223829 16 360 3.2 0.0 0.00 0.00 0.00 92 1012.1
20260505223335 16 360 3.2 0.0 0.00 0.00 0.00 92 1012.2
20260505222827 16 360 3.2 0.0 0.00 0.00 0.00 92 1012.3
20260505222357 16 360 3.2 0.0 0.00 0.00 0.00 92 1012.3
20260505221826 16 360 1.6 0.0 0.00 0.00 0.00 92 1012.3
20260505221332 16 360 1.6 0.0 0.00 0.00 0.00 92 1012.3
20260505220843 16 360 3.2 0.0 0.00 0.00 0.00 92 1012.4
20260505220334 16 360 3.2 0.0 0.00 0.00 0.00 92 1012.4
20260505215837 16 360 4.8 0.0 0.00 0.00 0.00 92 1012.4
20260505215329 16 360 4.8 0.0 0.00 0.00 0.00 92 1012.5
20260505214855 16 360 4.8 0.0 0.00 0.00 0.00 92 1012.5
20260505214345 16 360 6.4 0.0 0.00 0.00 0.00 92 1012.5
20260505213835 16 360 4.8 0.0 0.00 0.00 0.00 92 1012.4
20260505213326 17 360 4.8 0.0 0.00 0.00 0.00 92 1012.4
20260505212836 17 360 6.4 0.0 0.00 0.00 0.00 92 1012.5
20260505212343 16 360 6.4 0.0 0.00 0.00 0.00 92 1012.5
20260505211854 16 360 8.0 0.0 0.00 0.00 0.00 92 1012.5
20260505211344 16 360 8.0 0.0 0.00 0.00 0.00 92 1012.5
20260505210855 16 360 8.0 0.0 0.00 0.00 0.00 92 1012.4
20260505210326 16 360 8.0 0.0 0.00 0.00 0.00 92 1012.4
20260505205827 16 360 6.4 0.0 0.00 0.00 0.00 92 1012.4
20260505205338 16 360 6.4 0.0 0.00 0.00 0.00 91 1012.3
20260505204829 16 360 4.8 0.0 0.00 0.00 0.00 91 1012.4
20260505204339 16 360 3.2 0.0 0.00 0.00 0.00 91 1012.4